Weather History for Minot, ND

Change the Weather History Date:

Thursday, April 3, 2014

  Actual Average Record
Temperature  
Mean Temperature 28 °F 37 °F  
Max Temperature 34 °F 48 °F 77 °F (1988)
Min Temperature 22 °F 27 °F -3 °F (1920)
Degree Days  
Heating Degree Days 37 28  
Month to date heating degree days 127 85  
Since 1 July heating degree days 8643 7800  
Cooling Degree Days 0 0  
Month to date cooling degree days 0 0  
Year to date cooling degree days 0 0  
Moisture  
Dew Point 21 °F    
Average Humidity 79    
Maximum Humidity 92    
Minimum Humidity 66    
Precipitation  
Precipitation 0.07 in 0.03 in 0.16 in (2011)
Month to date precipitation 0.09 0.09  
Year to date precipitation 0.50 1.84  
Sea Level Pressure  
Sea Level Pressure 30.04 in    
Wind  
Wind Speed 7 mph (ENE)    
Max Wind Speed 14 mph    
Max Gust Speed 17 mph    
Visibility 5 miles    
Events Snow    
T = Trace of Precipitation, MM = Missing Value Source: NWS Daily Summary

Daily Weather History Graph

Daily Weather History Graph

Search for Another Location

Airport:

Trip Planner

Search our weather history database for the weather conditions in past years. The results will help you decide how hot, cold, wet, or windy it might be!

Date:

Astronomy

Apr. 03, 2014 Rise Set
Actual Time 7:19 AM CDT 8:18 PM CDT
Civil Twilight 6:47 AM CDT 8:50 PM CDT
Nautical Twilight 6:09 AM CDT 9:28 PM CDT
Astronomical Twilight 5:29 AM CDT 10:09 PM CDT
Moon 9:34 AM CDT (4/3) No Moon Set
Length of Visible Light 14h 03m
Length of Day
12h 59m
Waxing Crescent, 17% of the Moon is Illuminated
Apr 3
Waxing Crescent
Apr 7
First Quarter
Apr 15
Full
Apr 22
Last Quarter
Apr 29
New

Hourly Weather History & Observations

Time (CDT) Temp. Windchill Dew Point Humidity Pressure Visibility Wind Dir Wind Speed Gust Speed Precip Events Conditions
12:14 AM 23.0 °F 14.7 °F 19.9 °F 88% 30.04 in 2.0 mi East 6.9 mph - 0.00 in Snow Light Snow
12:26 AM 23.0 °F 13.9 °F 19.9 °F 88% 30.04 in 1.8 mi East 8.1 mph - 0.00 in Snow Light Snow
12:36 AM 23.0 °F 14.7 °F 19.9 °F 88% 30.04 in 1.5 mi East 6.9 mph - 0.00 in Snow Light Snow
12:54 AM 23.0 °F 13.9 °F 19.9 °F 88% 30.12 in 1.0 mi ESE 8.1 mph - 0.01 in Snow Light Snow
1:54 AM 23.0 °F 13.9 °F 19.9 °F 88% 30.10 in 2.0 mi East 8.1 mph - 0.02 in Snow Light Snow
2:11 AM 23.0 °F 13.1 °F 19.0 °F 85% 30.02 in 2.5 mi East 9.2 mph - 0.00 in Snow Light Snow
2:35 AM 23.0 °F 13.9 °F 19.0 °F 85% 30.02 in 3.0 mi East 8.1 mph - 0.00 in Snow Light Snow
2:44 AM 23.0 °F 14.7 °F 19.9 °F 88% 30.02 in 2.0 mi East 6.9 mph - 0.00 in Snow Light Snow
2:54 AM 23.0 °F 14.7 °F 19.9 °F 88% 30.09 in 2.5 mi East 6.9 mph - 0.00 in Snow Light Snow
3:10 AM 21.9 °F 13.4 °F 19.9 °F 92% 30.01 in 3.0 mi East 6.9 mph - 0.00 in Snow Light Snow
3:51 AM 21.2 °F 11.7 °F 19.4 °F 93% 29.99 in 2.5 mi East 8.1 mph - 0.01 in Snow Light Snow
3:54 AM 21.9 °F 14.5 °F 19.0 °F 89% 30.07 in 3.0 mi East 5.8 mph - 0.01 in Snow Light Snow
4:26 AM 21.9 °F 15.7 °F 19.0 °F 89% 29.98 in 2.0 mi East 4.6 mph - 0.00 in Snow Light Snow
4:42 AM 21.9 °F 14.5 °F 19.0 °F 89% 29.98 in 2.0 mi East 5.8 mph - 0.00 in Snow Light Snow
4:48 AM 21.2 °F 12.6 °F 19.4 °F 93% 29.98 in 1.8 mi East 6.9 mph - 0.00 in Snow Light Snow
4:49 AM 21.9 °F 13.4 °F 19.9 °F 92% 30.06 in 1.8 mi East 6.9 mph - 0.00 in Snow Light Snow
5:05 AM 23.0 °F 13.1 °F 19.9 °F 88% 29.98 in 1.8 mi East 9.2 mph - 0.00 in Snow Light Snow
5:54 AM 23.0 °F 17.0 °F 19.9 °F 88% 30.05 in 1.8 mi East 4.6 mph - 0.01 in Snow Light Snow
6:11 AM 23.0 °F 17.0 °F 19.9 °F 88% 29.97 in 2.5 mi East 4.6 mph - 0.00 in Snow Light Snow
6:13 AM 23.0 °F 17.0 °F 19.9 °F 88% 29.97 in 3.0 mi East 4.6 mph - 0.00 in Snow Light Snow
6:25 AM 23.0 °F 17.0 °F 19.9 °F 88% 29.97 in 4.0 mi East 4.6 mph - 0.00 in Snow Light Snow
6:54 AM 21.9 °F 14.5 °F 19.0 °F 89% 30.05 in 3.0 mi East 5.8 mph - 0.00 in Snow Light Snow
7:54 AM 21.9 °F 17.2 °F 19.9 °F 92% 30.06 in 6.0 mi East 3.5 mph - 0.01 in Snow Light Snow
8:13 AM 23.0 °F 18.4 °F 19.9 °F 88% 29.99 in 2.5 mi East 3.5 mph - 0.00 in Snow Light Snow
8:24 AM 23.0 °F 17.0 °F 19.9 °F 88% 29.99 in 2.5 mi East 4.6 mph - 0.00 in Snow Light Snow
8:39 AM 23.0 °F 17.0 °F 19.9 °F 88% 29.99 in 1.5 mi East 4.6 mph - 0.00 in Snow Light Snow
8:54 AM 23.0 °F 17.0 °F 19.4 °F 86% 29.99 in 1.5 mi East 4.6 mph - N/A Snow Light Snow
9:54 AM 23.0 °F 18.4 °F 19.9 °F 88% 30.08 in 1.2 mi ESE 3.5 mph - 0.01 in Snow Light Snow
10:03 AM 24.1 °F 19.7 °F 19.9 °F 84% 29.99 in 1.2 mi East 3.5 mph - 0.00 in Snow Light Snow
10:40 AM 24.1 °F - 19.9 °F 84% 30.00 in 2.0 mi Calm Calm - 0.00 in Snow Light Snow
10:54 AM 25.0 °F - 19.9 °F 81% 30.08 in 1.8 mi Calm Calm - 0.00 in Snow Light Snow
11:11 AM 25.0 °F - 19.9 °F 81% 30.00 in 1.2 mi Calm Calm - 0.01 in Snow Light Snow
11:21 AM 25.0 °F - 21.0 °F 85% 30.00 in 3.0 mi Calm Calm - 0.01 in Snow Light Snow
11:42 AM 28.0 °F 22.8 °F 21.0 °F 75% 30.00 in 7.0 mi North 4.6 mph - 0.01 in   Overcast
11:54 AM 28.9 °F 23.9 °F 21.0 °F 72% 30.08 in 8.0 mi NNW 4.6 mph - 0.01 in   Mostly Cloudy
12:54 PM 30.9 °F 24.3 °F 21.9 °F 69% 30.08 in 10.0 mi NW 6.9 mph - N/A   Mostly Cloudy
1:36 PM 32.0 °F 24.8 °F 23.0 °F 69% 30.00 in 10.0 mi North 8.1 mph - N/A   Mostly Cloudy
1:54 PM 33.1 °F 24.9 °F 24.1 °F 70% 30.07 in 10.0 mi NNW 10.4 mph - N/A   Overcast
2:08 PM 33.1 °F 24.9 °F 24.1 °F 70% 30.00 in 10.0 mi NNW 10.4 mph - N/A   Overcast
2:54 PM 33.1 °F 24.4 °F 24.1 °F 70% 30.08 in 10.0 mi NNW 11.5 mph - N/A   Overcast
3:54 PM 32.0 °F 24.2 °F 23.0 °F 69% 30.09 in 10.0 mi NW 9.2 mph - N/A   Overcast
4:54 PM 33.1 °F 25.5 °F 24.1 °F 70% 30.09 in 10.0 mi NNW 9.2 mph - N/A   Overcast
5:54 PM 33.1 °F 25.5 °F 24.1 °F 70% 30.10 in 10.0 mi NW 9.2 mph - N/A   Overcast
6:54 PM 32.0 °F 23.6 °F 24.1 °F 73% 30.12 in 10.0 mi NW 10.4 mph - N/A   Overcast
7:54 PM 32.0 °F 24.8 °F 24.1 °F 73% 30.12 in 10.0 mi NW 8.1 mph - N/A   Overcast
8:54 PM 30.9 °F 24.3 °F 25.0 °F 79% 30.14 in 10.0 mi NNW 6.9 mph - N/A   Overcast
10:54 PM 27.0 °F 20.5 °F 23.0 °F 85% 30.16 in 10.0 mi NNW 5.8 mph - N/A   Overcast
11:54 PM 27.0 °F 18.7 °F 23.0 °F 85% 30.16 in 10.0 mi NNW 8.1 mph - N/A   Mostly Cloudy